Location: Newark
(49.1022°N, 20.8503°E)
Time: 08:24:43
(UTC+00:00)

Envisat - Pass Details

Date: 28 September 2020
Orbit: 764 x 766 km, 98.1° (Epoch: 21 October)

Event Time Altitude Azimuth Distance (km) Brightness Sun altitude
Rises 03:16:22 0° 30° (NNE) 3,243 6.9 -13.2°
Reaches altitude 10° 03:19:51 10° 54° (NE) 2,310 6.6 -12.6°
Maximum altitude 03:22:31 14° 86° (E) 2,024 6.5 -12.2°
Drops below altitude 10° 03:25:11 10° 119° (ESE) 2,300 6.3 -11.8°
Sets 03:28:37 0° 143° (SE) 3,220 6.6 -11.2°
